• en Suisse
  • Liste des pays
  • À 7 jours
  • Température de l'eau
  • Carte satellitaire
  • Carte météo
  • Widgets météo
  • user-avatar
    Se connecter

    Météo par heure à Verhniy Suyan

    Ce jour, 23 Septembre, Dimanche

    Heure Température Précipitation Vent Pression Humidité
    00:00 +13°C° 0 mm 1 m/s 750 mmHg 98%
    01:00 +13°C° 0 mm 1 m/s 750 mmHg 98%
    02:00 +12°C° 0 mm 0 m/s 750 mmHg 98%
    03:00 +11°C° 0 mm 0 m/s 750 mmHg 98%
    04:00 +11°C° 0 mm 0 m/s 750 mmHg 98%
    05:00 +11°C° 0 mm 0 m/s 751 mmHg 97%
    06:00 +11°C° 0 mm 0 m/s 751 mmHg 97%
    07:00 +11°C° 0 mm 0 m/s 751 mmHg 97%
    08:00 +12°C° 0 mm 0 m/s 751 mmHg 94%
    09:00 +14°C° 0 mm 0 m/s 751 mmHg 90%
    10:00 +15°C° 0 mm 0 m/s 751 mmHg 87%
    11:00 +16°C° 0 mm 1 m/s 751 mmHg 84%
    12:00 +18°C° 0 mm 1 m/s 751 mmHg 80%
    13:00 +19°C° 0 mm 1 m/s 751 mmHg 77%
    14:00 +19°C° 0 mm 1 m/s 751 mmHg 77%
    15:00 +19°C° 0 mm 1 m/s 751 mmHg 77%
    16:00 +20°C° 0 mm 1 m/s 751 mmHg 76%
    17:00 +18°C° 0 mm 1 m/s 750 mmHg 82%
    18:00 +16°C° 0 mm 1 m/s 750 mmHg 87%
    19:00 +14°C° 0 mm 1 m/s 750 mmHg 93%
    20:00 +14°C° 0 mm 1 m/s 750 mmHg 94%
    21:00 +14°C° 0 mm 1 m/s 750 mmHg 95%
    22:00 +14°C° 0 mm 2 m/s 750 mmHg 96%
    23:00 +13°C° 0 mm 2 m/s 750 mmHg 96%

    Demain, 24 Septembre, Lundi

    Heure Température Précipitation Vent Pression Humidité
    00:00 +13°C° 0 mm 2 m/s 750 mmHg 96%
    01:00 +13°C° 0 mm 2 m/s 750 mmHg 97%
    02:00 +13°C° 0 mm 2 m/s 750 mmHg 97%
    03:00 +13°C° 0 mm 2 m/s 749 mmHg 97%
    04:00 +13°C° 0 mm 2 m/s 749 mmHg 97%
    05:00 +13°C° 0 mm 2 m/s 749 mmHg 97%
    06:00 +13°C° 0 mm 2 m/s 749 mmHg 97%
    07:00 +13°C° 0 mm 2 m/s 749 mmHg 97%
    08:00 +14°C° 0 mm 3 m/s 749 mmHg 92%
    09:00 +17°C° 0 mm 3 m/s 749 mmHg 86%
    10:00 +19°C° 0 mm 3 m/s 749 mmHg 81%
    11:00 +20°C° 0.2 mm 4 m/s 749 mmHg 75%
    12:00 +21°C° 0.2 mm 4 m/s 748 mmHg 69%
    13:00 +22°C° 0.2 mm 5 m/s 748 mmHg 63%
    14:00 +22°C° 0.1 mm 4 m/s 748 mmHg 64%
    15:00 +21°C° 0.1 mm 4 m/s 748 mmHg 64%
    16:00 +21°C° 0.1 mm 3 m/s 748 mmHg 65%
    17:00 +19°C° 0 mm 3 m/s 748 mmHg 71%
    18:00 +18°C° 0 mm 3 m/s 748 mmHg 77%
    19:00 +16°C° 0 mm 3 m/s 748 mmHg 83%
    20:00 +16°C° 0 mm 3 m/s 748 mmHg 85%
    21:00 +14°C° 0 mm 3 m/s 748 mmHg 86%
    22:00 +15°C° 0 mm 2 m/s 748 mmHg 88%
    23:00 +14°C° 0 mm 2 m/s 747 mmHg 89%

    Après-demain, 25 Septembre, Mardi

    Heure Température Précipitation Vent Pression Humidité
    00:00 +14°C° 0 mm 2 m/s 747 mmHg 89%
    01:00 +13°C° 0 mm 2 m/s 747 mmHg 90%
    02:00 +13°C° 0 mm 2 m/s 747 mmHg 89%
    03:00 +12°C° 0 mm 3 m/s 747 mmHg 89%
    04:00 +12°C° 0 mm 3 m/s 747 mmHg 88%
    05:00 +12°C° 0 mm 3 m/s 747 mmHg 84%
    06:00 +13°C° 0 mm 3 m/s 747 mmHg 80%
    07:00 +13°C° 0 mm 3 m/s 747 mmHg 77%
    08:00 +16°C° 0 mm 3 m/s 747 mmHg 70%
    09:00 +17°C° 0 mm 4 m/s 746 mmHg 63%
    10:00 +19°C° 0 mm 5 m/s 746 mmHg 56%
    11:00 +20°C° 0 mm 5 m/s 746 mmHg 55%
    12:00 +20°C° 0 mm 6 m/s 746 mmHg 53%
    13:00 +21°C° 0 mm 6 m/s 746 mmHg 52%
    14:00 +21°C° 0 mm 6 m/s 746 mmHg 55%
    15:00 +20°C° 0 mm 5 m/s 746 mmHg 58%
    16:00 +20°C° 0 mm 5 m/s 746 mmHg 61%
    17:00 +18°C° 0 mm 4 m/s 746 mmHg 67%
    18:00 +17°C° 0 mm 3 m/s 746 mmHg 74%
    19:00 +14°C° 0 mm 3 m/s 746 mmHg 80%
    20:00 +14°C° 0 mm 3 m/s 746 mmHg 80%
    21:00 +14°C° 0 mm 3 m/s 746 mmHg 81%
    22:00 +13°C° 0 mm 3 m/s 746 mmHg 81%
    23:00 +13°C° 0 mm 3 m/s 746 mmHg 78%

    26 Septembre, Mercredi

    Heure Température Précipitation Vent Pression Humidité
    00:00 +13°C° 0 mm 3 m/s 746 mmHg 75%
    01:00 +13°C° 0 mm 4 m/s 746 mmHg 72%
    02:00 +13°C° 0.1 mm 4 m/s 746 mmHg 72%
    03:00 +13°C° 0.1 mm 4 m/s 746 mmHg 71%
    04:00 +13°C° 0.1 mm 4 m/s 746 mmHg 70%
    05:00 +13°C° 0.1 mm 4 m/s 746 mmHg 71%
    06:00 +13°C° 0.1 mm 4 m/s 747 mmHg 71%
    07:00 +13°C° 0.1 mm 5 m/s 747 mmHg 72%
    08:00 +14°C° 0 mm 5 m/s 747 mmHg 71%
    09:00 +14°C° 0 mm 4 m/s 747 mmHg 71%
    10:00 +15°C° 0 mm 4 m/s 747 mmHg 70%
    11:00 +15°C° 0 mm 4 m/s 748 mmHg 69%
    12:00 +15°C° 0 mm 4 m/s 748 mmHg 68%
    13:00 +15°C° 0 mm 4 m/s 749 mmHg 68%
    14:00 +14°C° 0.2 mm 4 m/s 749 mmHg 72%
    15:00 +13°C° 0.2 mm 4 m/s 749 mmHg 76%
    16:00 +12°C° 0.2 mm 4 m/s 750 mmHg 80%
    17:00 +12°C° 0.3 mm 3 m/s 750 mmHg 83%
    18:00 +11°C° 0.3 mm 3 m/s 750 mmHg 85%
    19:00 +10°C° 0.3 mm 3 m/s 751 mmHg 88%
    20:00 +10°C° 0.1 mm 3 m/s 751 mmHg 89%
    21:00 +9°C° 0.1 mm 3 m/s 751 mmHg 90%
    22:00 +9°C° 0.1 mm 3 m/s 751 mmHg 91%
    23:00 +9°C° 0 mm 3 m/s 751 mmHg 91%

    27 Septembre, Jeudi

    Heure Température Précipitation Vent Pression Humidité
    00:00 +9°C° 0 mm 2 m/s 751 mmHg 91%
    01:00 +9°C° 0 mm 2 m/s 752 mmHg 90%
    02:00 +9°C° 0 mm 2 m/s 752 mmHg 91%
    03:00 +9°C° 0 mm 2 m/s 752 mmHg 91%
    04:00 +8°C° 0 mm 2 m/s 752 mmHg 92%
    05:00 +8°C° 0 mm 2 m/s 752 mmHg 92%
    06:00 +8°C° 0 mm 2 m/s 752 mmHg 92%
    07:00 +8°C° 0 mm 2 m/s 752 mmHg 92%
    08:00 +9°C° 0 mm 3 m/s 752 mmHg 86%
    09:00 +10°C° 0 mm 3 m/s 752 mmHg 79%
    10:00 +10°C° 0 mm 4 m/s 752 mmHg 73%
    11:00 +11°C° 0 mm 4 m/s 751 mmHg 69%
    12:00 +12°C° 0 mm 4 m/s 751 mmHg 65%
    13:00 +12°C° 0 mm 3 m/s 751 mmHg 61%
    14:00 +12°C° 0 mm 3 m/s 751 mmHg 64%
    15:00 +11°C° 0 mm 3 m/s 750 mmHg 68%
    16:00 +11°C° 0 mm 3 m/s 750 mmHg 71%
    17:00 +10°C° 0.5 mm 2 m/s 750 mmHg 76%
    18:00 +9°C° 0.5 mm 2 m/s 749 mmHg 82%
    19:00 +8°C° 0.5 mm 2 m/s 749 mmHg 87%
    20:00 +8°C° 0.8 mm 3 m/s 749 mmHg 88%
    21:00 +7°C° 0.8 mm 3 m/s 748 mmHg 89%
    22:00 +7°C° 0.8 mm 3 m/s 748 mmHg 89%
    23:00 +5°C° 0.1 mm 3 m/s 747 mmHg 90%

    28 Septembre, Vendredi

    Heure Température Précipitation Vent Pression Humidité
    00:00 +5°C° 0.1 mm 3 m/s 747 mmHg 91%
    01:00 +4°C° 0.1 mm 4 m/s 747 mmHg 92%
    02:00 +4°C° 0 mm 4 m/s 746 mmHg 92%
    03:00 +4°C° 0 mm 4 m/s 746 mmHg 92%
    04:00 +4°C° 0 mm 4 m/s 745 mmHg 91%
    05:00 +3°C° 0 mm 5 m/s 745 mmHg 88%
    06:00 +3°C° 0 mm 5 m/s 744 mmHg 85%
    07:00 +4°C° 0 mm 6 m/s 743 mmHg 82%
    08:00 +4°C° 0.2 mm 6 m/s 743 mmHg 80%
    09:00 +5°C° 0.2 mm 7 m/s 742 mmHg 78%
    10:00 +5°C° 0.2 mm 8 m/s 741 mmHg 76%
    11:00 +5°C° 0.6 mm 8 m/s 741 mmHg 78%
    12:00 +5°C° 0.6 mm 8 m/s 740 mmHg 79%
    13:00 +5°C° 0.6 mm 8 m/s 740 mmHg 81%
    14:00 +5°C° 0.5 mm 8 m/s 740 mmHg 82%
    15:00 +5°C° 0.5 mm 8 m/s 740 mmHg 82%
    16:00 +5°C° 0.5 mm 8 m/s 739 mmHg 83%
    17:00 +5°C° 0.5 mm 8 m/s 740 mmHg 84%
    18:00 +5°C° 0.5 mm 7 m/s 740 mmHg 85%
    19:00 +5°C° 0.5 mm 7 m/s 740 mmHg 86%
    20:00 +5°C° 0.2 mm 7 m/s 741 mmHg 85%
    21:00 +5°C° 0.2 mm 7 m/s 741 mmHg 85%
    22:00 +4°C° 0.2 mm 7 m/s 742 mmHg 84%
    23:00 +4°C° 0.1 mm 7 m/s 742 mmHg 85%
    Voir plus